Location: *
(51.1319°S, 176.3959°W)
Time: 01:28:55
(UTC+00:00)

Daily predictions for brighter satellites

Satellite Brightness Start Highest point End
(mag) Time Altitude Azimuth Time Altitude Azimuth Time Altitude Azimuth
S3M 4.3 06:36:56 10° S 06:42:55 47° ESE 06:48:50 10° NE
Meteor 1-31 Rocket 2.9 06:41:28 10° SSE 06:45:08 49° E 06:48:43 10° N
BlueWalker 3 2.1 06:45:23 10° WSW 06:49:14 70° SSE 06:53:04 10° E
Cosmos 2369 Rocket 2.2 06:43:48 10° NNW 06:49:26 84° ENE 06:55:07 10° SSE
Cosmos 1703 Rocket 4.0 06:49:27 10° NNE 06:53:33 40° E 06:57:42 10° SSE
Cosmos 2263 4.2 06:48:06 10° NNW 06:53:43 70° ENE 06:59:26 10° SSE
Cosmos 1943 Rocket 4.5 06:52:27 10° W 06:57:15 27° SW 07:02:05 10° SSE
Okean 2 3.4 06:55:40 10° N 06:59:41 87° W 07:03:46 10° S
Cosmos 1190 Rocket 4.4 06:55:54 10° SSW 07:01:02 48° ESE 07:06:05 10° NE
Okean 1-7 2.9 06:58:21 10° N 07:02:34 79° E 07:06:54 10° SSE
CZ-4C R/B 4.3 07:02:24 11° ENE 07:05:05 25° ESE 07:07:57 10° S
ADEOS Rocket 3.9 07:00:22 10° S 07:05:48 50° WSW 07:11:07 10° NW
RESURS DK-1 4.1 07:05:15 11° ENE 07:06:33 13° ENE 07:08:22 10° ESE
Cosmos 2266 Rocket 4.1 07:04:12 10° N 07:10:17 58° E 07:16:20 10° SSE
CZ-4 R/B 2.9 07:07:50 10° SE 07:10:18 16° E 07:11:46 13° ENE
Cosmos 44 3.7 07:05:06 10° SW 07:10:21 73° NW 07:15:42 10° NNE
USA 238 DEB 4.3 07:08:35 10° SW 07:15:06 51° WNW 07:21:05 10° NNE
USA 238 4.3 07:08:42 10° SW 07:15:14 51° WNW 07:21:13 10° NNE
Meteor 1-24 Rocket 4.5 07:10:53 10° NNE 07:15:29 29° E 07:20:16 10° SSE
USA 306 3.1 07:12:18 10° NNW 07:15:37 31° NE 07:17:58 14° E
ADEOS 4.5 07:11:52 10° SE 07:16:25 28° E 07:20:55 10° NNE
SJ-6B 3.6 07:16:20 10° SE 07:19:33 27° E 07:22:24 12° NNE
SL-08 ROCKET BODY 4.3 07:15:11 10° N 07:21:02 70° E 07:27:01 10° SSE
Meteor 2-5 Rocket 4.4 07:17:11 10° NNE 07:22:05 33° E 07:27:03 10° SSE
Cosmos 676 Rocket 4.4 07:18:08 10° SSW 07:23:12 46° ESE 07:27:08 16° NE
Cosmos 2227 Rocket 3.7 07:20:02 10° SSW 07:24:37 24° SE 07:28:41 12° E
Cosmos 2251 Rocket 3.7 07:19:33 10° SSW 07:25:00 82° WNW 07:30:22 10° NNE
Cosmos 1954 Rocket 4.1 07:21:40 10° SSW 07:26:51 58° ESE 07:31:01 16° NE
ATLAS CENTAUR R/B 4.1 07:18:26 10° WSW 07:28:18 69° SSE 07:36:03 14° E
Cosmos 2297 Rocket 3.0 07:23:54 10° SSW 07:29:14 38° SE 07:33:07 17° ENE
USA 59 Rocket 3.2 07:23:52 10° W 07:33:51 45° SSW 07:43:26 10° SE
Resurs 01 Rocket 2.8 07:30:29 10° SE 07:34:07 23° E 07:35:34 20° ENE
DELTA 2 DEB (DPAF) 4.3 07:30:08 10° N 07:34:16 67° WNW 07:38:30 10° SSW
USA 186 3.3 07:36:40 10° SE 07:38:52 20° E 07:38:52 20° E
NOAA 6 4.2 07:35:35 10° SSE 07:40:47 79° WSW 07:45:57 10° NNW
YAOGAN 1 2.6 07:36:38 10° SSE 07:41:03 83° WSW 07:45:22 10° NNW
Meteor 2-20 4.5 07:36:05 10° S 07:42:18 89° WNW 07:48:25 10° N
Meteor PRIRODA 3.9 07:42:02 10° SSE 07:45:13 38° E 07:46:22 28° NE
Cosmos 407 Rocket 4.5 07:41:33 10° SW 07:46:31 46° WNW 07:51:31 10° N
CZ-2C R/B 4.0 07:44:44 10° S 07:48:07 40° WSW 07:51:26 10° NW
ATLAS 3B R/B 4.1 07:43:00 10° SW 07:48:20 27° S 07:53:34 10° ESE
Meteor 2-20 Rocket 4.3 07:43:34 10° S 07:49:27 77° ESE 07:54:47 13° NNE
Helios 1B rocket 2.4 07:46:51 10° SSE 07:50:48 80° WSW 07:54:41 10° NNW
NOSS 3-4 (A) 4.3 07:47:32 10° NW 07:56:17 81° SW 08:04:16 10° SE
NOSS 3-4 (C) 4.3 07:47:35 10° NW 07:56:19 81° SW 08:04:18 10° SE
SPOT 1/Viking Rocket 3.5 07:51:58 10° SSE 07:57:16 70° ENE 08:02:28 10° N
Okean 2 Rocket 4.0 07:55:19 10° S 07:59:24 33° ESE 08:00:36 28° ENE
Cosmos 1420 Rocket 3.9 07:54:56 10° NNW 08:00:16 75° ENE 08:05:37 10° SSE
Cosmos 2056 Rocket 3.5 07:56:01 10° N 08:01:16 60° ENE 08:06:30 10° SSE
Cosmos 1782 Rocket 4.3 07:57:13 10° SSW 08:01:40 54° W 08:06:02 10° N
Okean O Rocket 3.0 07:59:11 10° SE 08:02:15 21° E 08:02:15 21° E
USA 215 3.4 08:00:29 23° NE 08:04:52 69° NW 08:11:30 10° WSW
Cosmos 1703 3.6 08:02:27 10° NNW 08:06:09 62° WSW 08:09:54 10° S
Cosmos 1825 1.9 08:05:45 49° NE 08:06:09 53° E 08:09:26 10° SSE
Cosmos 489 Rocket 4.4 08:02:50 10° NNW 08:09:02 73° ENE 08:15:19 10° SSE
Cosmos 2263 Rocket 3.8 08:05:54 10° SSW 08:10:22 23° SE 08:13:13 16° ESE
USA 305 2.3 08:10:19 10° WNW 08:11:53 45° W 08:11:53 45° W
Resurs 1-3 3.9 08:10:50 10° S 08:15:15 69° WSW 08:19:36 10° NNW
ACS3 Solar Sail 2.0 08:09:04 10° SSE 08:15:22 57° E 08:20:00 19° N
Cosmos 1892 2.3 08:17:19 52° NNE 08:18:02 74° E 08:21:33 10° SSE
USA 276 4.1 08:17:11 10° WNW 08:17:52 14° WNW 08:17:52 14° WNW
SL-12 R/B(2) 4.3 08:10:37 10° SW 08:19:46 68° SE 08:24:19 28° ENE
Cosmos 1674 Rocket 4.1 08:21:33 38° E 08:21:43 38° E 08:25:55 10° SSE
Cosmos 2221 Rocket 4.4 08:22:00 34° E 08:22:00 34° E 08:26:09 10° SSE
Nadezhda 1 Rocket 4.3 08:16:15 10° S 08:22:13 47° ESE 08:24:32 33° ENE
SAR-Lupe-2 3.8 08:19:54 10° S 08:23:35 72° WSW 08:25:59 20° NNW
Cosmos 2151 Rocket 3.7 08:19:57 10° S 08:24:31 62° ESE 08:25:42 45° NE
CZ-4B R/B 2.7 08:21:01 10° SSE 08:24:55 76° ENE 08:26:16 40° N
Cosmos 1655 Rocket 4.4 08:20:35 10° NNW 08:26:50 66° WSW 08:33:08 10° S
Cosmos 1244 Rocket 4.5 08:22:20 19° N 08:27:02 70° E 08:33:20 10° SSE
BlueWalker 3 2.3 08:23:28 10° WSW 08:27:11 47° NNW 08:27:32 45° NNW
Okean 1 Rocket 3.6 08:23:00 10° S 08:27:17 41° ESE 08:27:46 39° E
CZ-4B R/B 3.3 08:22:49 10° SSE 08:27:41 87° WSW 08:32:11 12° NNW
Sich 1 Rocket 3.8 08:25:29 10° S 08:30:06 60° ESE 08:31:05 48° NE
NOSS 3-1 (A) 4.4 08:23:24 10° SW 08:30:23 42° SSE 08:33:52 23° E
SJ 16-02 1.9 08:27:18 10° SSW 08:31:32 41° ESE 08:32:06 39° E
CSL-04 Debris 4.2 08:27:15 10° SSE 08:32:44 58° E 08:34:51 36° NNE
Cosmos 2369 Rocket 4.5 08:29:32 10° W 08:34:10 25° SW 08:38:49 10° SSE
SPOT 5 3.9 08:32:54 10° SSE 08:36:22 28° ESE 08:36:22 28° ESE
Feng Yun 1-1 Rocket 4.3 08:32:52 10° SSE 08:38:35 60° ENE 08:40:55 36° NNE
Cosmos 1455 Rocket 4.3 08:35:45 10° S 08:39:17 26° ESE 08:39:17 26° ESE
Cosmos 1378 Rocket 3.4 08:39:51 60° NE 08:40:26 69° E 08:44:50 10° SSE
ASTEX 1 4.4 08:38:47 10° SSE 08:42:45 29° ESE 08:42:45 29° ESE
RESURS DK-1 2.3 08:40:19 16° NW 08:43:33 83° SW 08:47:40 10° SSE
Cosmos 2285 Rocket 4.0 08:38:01 10° SSW 08:44:35 87° WNW 08:47:16 38° NNE
ATLAS 2AS CENTAUR R/B 4.3 08:47:52 17° ESE 08:47:52 17° ESE 08:50:04 10° ESE
Cosmos 1328 4.2 08:45:50 46° SE 08:45:50 46° SE 08:48:50 10° SSE
CZ-4 R/B 1.9 08:41:17 10° S 08:45:06 56° WSW 08:47:14 24° NW
NOSS 3-1 (C) 3.5 08:39:14 10° SW 08:46:19 68° SE 08:48:20 42° ENE
USA 306 3.2 08:44:20 10° WNW 08:46:48 40° W 08:46:48 40° W
Cosmos 1980 Rocket 4.2 08:50:23 14° ESE 08:50:23 14° ESE 08:51:36 10° ESE
Cosmos 1656 3.5 08:46:36 11° NNW 08:51:48 83° ENE 08:57:20 10° SSE
Cosmos 1741 Rocket 3.9 08:47:20 10° SSW 08:52:44 88° ESE 08:53:56 55° NNE
Cosmos 2219 3.9 08:47:30 10° SSW 08:52:54 42° SE 08:54:18 36° E
Nadezhda 2 Rocket 4.4 08:49:40 22° NNW 08:53:48 84° W 09:00:03 10° S
ADEOS 4.4 08:51:01 10° S 08:56:09 52° WSW 09:01:15 10° NW
Cosmos 1850 Rocket 4.0 08:52:01 10° SSW 08:57:20 83° WNW 08:58:28 56° N
CARTOSAT-1 4.1 08:54:22 10° S 08:58:38 58° WSW 09:00:35 30° NW
BREEZE-M DEB (TANK) 4.4 08:54:24 10° W 08:59:41 83° N 09:24:07 10° E
BREEZE-M DEB (TANK) 4.3 08:37:50 10° W 09:03:17 82° N 09:06:37 38° ENE
SL-24 R/B - RUBIN 2 3.8 08:59:15 10° NW 09:03:28 64° SW 09:07:46 10° SE
CZ-4B R/B 3.2 09:01:21 10° SSE 09:07:01 83° WSW 09:09:26 36° NNW
Okean-O 3.3 09:02:49 10° SSE 09:06:09 42° SE 09:06:09 42° SE
Cosmos 968 Rocket 3.4 09:02:33 10° SSW 09:07:54 84° WNW 09:08:41 65° N
MOS 1-B 4.2 09:02:23 10° SSE 09:08:19 78° ENE 09:09:56 50° N
Cosmos 2227 Rocket 2.1 09:03:43 10° SSW 09:09:29 88° ESE 09:10:29 63° NNE
Landsat 5 3.7 09:10:18 61° NW 09:10:35 63° WNW 09:14:55 10° SSW
Resurs 01 Rocket 2.5 09:06:25 10° S 09:10:47 49° WSW 09:13:02 26° NW
USA 186 3.6 09:07:59 10° S 09:10:53 29° WSW 09:11:20 28° W
MOS 1 Rocket 3.5 09:06:46 10° SSE 09:11:29 60° E 09:11:29 60° E
Cosmos 2360 4.1 09:10:48 55° N 09:12:01 74° ENE 09:17:47 10° SSE
Cosmos 2098 Rocket 4.0 09:09:09 10° SSW 09:10:56 32° SSW 09:10:56 32° SSW
Cosmos 2297 Rocket 2.8 09:07:57 10° SW 09:13:27 49° WNW 09:14:56 40° NNW
Meteor 1-21 Rocket 4.2 09:13:59 62° ENE 09:14:18 63° E 09:20:00 10° SSE
Cosmos 1110 Rocket 3.9 09:13:55 71° NNE 09:14:23 77° ENE 09:19:45 10° SSE
ATLAS CENTAUR R/B 3.8 09:05:55 10° WSW 09:15:36 70° NW 09:18:27 45° NNE
Cosmos 1697 Rocket 2.9 09:19:11 54° E 09:19:11 54° E 09:24:07 10° SE
CZ-2C R/B 3.7 09:19:25 88° N 09:19:27 90° WSW 09:24:17 10° SSW
MetOp-B 4.2 09:16:08 10° SSE 09:21:15 59° E 09:21:15 59° E
Cosmos 1437 Rocket 4.0 09:24:08 36° SSE 09:24:08 36° SSE 09:26:33 10° SSE
Cosmos 1745 Rocket 3.9 09:22:25 53° N 09:24:03 88° E 09:30:20 10° S
USA 59 Rocket 3.0 09:16:27 10° WSW 09:26:27 43° S 09:35:11 10° E
Lacrosse 4 Rocket 3.7 09:27:17 10° S 09:29:48 16° SSE 09:30:16 15° SE
MOS 1 4.1 09:26:12 10° SSE 09:32:01 79° ENE 09:32:28 73° NNE
ERS-1 Rocket 3.5 09:27:52 10° SSE 09:31:50 46° ESE 09:31:50 46° ESE
CSL-04 Rocket 4.3 09:28:15 10° S 09:33:37 55° WSW 09:36:08 30° NW
Cosmos 1452 Rocket 3.5 09:36:31 67° WNW 09:37:08 77° WSW 09:42:30 10° SSE
Okean 2 Rocket 4.4 09:33:23 10° SSW 09:37:22 32° W 09:37:54 31° WNW
Okean O Rocket 2.3 09:34:49 10° S 09:39:14 52° WSW 09:39:35 51° W
ATLAS 3B R/B 2.9 09:34:11 10° SW 09:40:19 53° SE 09:41:43 44° ESE
IRS-1A Rocket 4.4 09:35:50 10° SSE 09:41:31 63° E 09:41:31 63° E
Cosmos 2263 Rocket 2.1 09:49:24 10° SSW 09:54:54 84° S 09:54:54 84° S
Terra 2.5 09:51:49 10° SSE 09:55:21 48° SSE 09:55:21 48° SSE
ACS3 Solar Sail 3.3 09:53:24 10° S 09:59:02 34° WSW 10:04:43 10° WNW
Cosmos 2228 4.4 09:55:42 10° S 09:58:19 32° SSE 09:58:19 32° SSE
H-2A R/B 4.3 10:01:15 17° SE 10:01:15 17° SE 10:03:11 10° SSE
Cosmos 1025 Rocket 4.1 10:03:58 43° SW 10:03:58 43° SW 10:07:38 10° S
IRS-1C Rocket 4.3 10:03:57 10° SSE 10:08:42 70° SSE 10:08:42 70° SSE
Cosmos 1709 Rocket 4.2 10:08:29 57° WNW 10:09:25 64° WSW 10:15:35 10° S
SJ 16-02 3.1 10:05:55 10° SW 10:08:49 25° W 10:08:49 25° W
Nadezhda 3 Rocket 4.4 10:04:31 10° S 10:10:34 51° ESE 10:10:34 51° ESE
Cosmos 2184 Rocket 4.4 10:13:06 51° ESE 10:13:06 51° ESE 10:18:34 10° SSE
SPOT 5 3.8 10:10:41 10° S 10:15:20 42° WSW 10:15:30 42° WSW
Cosmos 371 Rocket 4.0 10:14:32 10° SSW 10:18:17 51° SW 10:18:17 51° SW
NOSS 3-1 (A) 3.5 10:15:00 10° SW 10:21:15 66° W 10:21:15 66° W
ASTEX 1 4.4 10:17:29 10° S 10:22:09 42° WSW 10:22:09 42° WSW
Meteor 1-11 4.4 10:23:26 69° SW 10:23:26 69° SW 10:28:49 10° S
Cosmos 1302 Rocket 4.4 10:25:37 60° SSW 10:25:37 60° SSW 10:30:13 10° SSE
Meteor 1-27 4.4 10:20:11 10° S 10:25:10 67° SSE 10:25:10 67° SSE
Spot 2 Rocket 4.0 10:21:39 10° SSE 10:25:47 58° S 10:25:47 58° S
Cosmos 2082 4.0 10:22:44 10° SW 10:27:34 59° WSW 10:27:34 59° WSW
Cosmos 1980 Rocket 2.5 10:32:05 62° SSE 10:32:05 62° SSE 10:36:52 10° SSE
ATLAS 2AS CENTAUR R/B 2.6 10:35:13 79° E 10:35:13 79° E 10:42:08 10° SE
Cosmos 2219 4.1 10:31:45 10° SW 10:36:12 40° W 10:36:12 40° W
Cosmos 2074 Rocket 4.0 10:44:10 80° SSE 10:44:10 80° SSE 10:50:13 10° S
Cosmos 2181 Rocket 4.5 10:40:54 10° SSW 10:47:02 52° W 10:47:07 52° W
SL-16 R/B 3.7 10:51:38 26° ESE 10:51:38 26° ESE 10:54:32 10° SE
Cosmos 2227 Rocket 4.2 10:49:02 10° WSW 10:52:18 18° W 10:52:18 18° W
Cosmos 2154 Rocket 4.0 10:58:37 78° SSE 10:58:37 78° SSE 11:04:35 10° S
Ariane Rocket 3.8 10:57:07 10° S 11:01:19 47° SW 11:01:19 47° SW
Cosmos 1697 Rocket 4.1 11:00:49 27° W 11:02:49 34° SW 11:07:59 10° SSE
Cosmos 1844 Rocket 3.1 11:02:01 10° SSW 11:06:40 58° S 11:06:40 58° S
Cosmos 2369 4.1 11:08:46 61° S 11:08:46 61° S 11:13:45 10° SSE
Lacrosse 4 Rocket 3.7 11:04:39 10° SSW 11:06:04 21° SSW 11:06:04 21° SSW
USA 229 DEB 3.6 11:04:58 10° SW 11:11:16 75° SSW 11:11:16 75° SSW
Resurs 1-4 Rocket 4.0 11:11:04 20° ESE 11:12:02 21° SE 11:15:59 10° S
USA 229 3.6 11:06:08 10° SW 11:12:24 75° SSW 11:12:24 75° SSW
USA 59 Rocket 2.1 11:07:57 10° SW 11:18:22 69° SE 11:21:50 41° ENE
Cosmos 2219 Rocket 4.3 11:20:49 16° ESE 11:20:49 16° ESE 11:22:44 10° ESE
Cosmos 2360 Rocket 3.8 11:21:26 25° ESE 11:21:26 25° ESE 11:24:28 10° SE
ATLAS 3B R/B 3.5 11:25:01 10° SW 11:28:57 35° WSW 11:28:57 35° WSW
Terra 4.0 11:30:22 10° SSW 11:33:41 19° WSW 11:34:03 19° WSW
Cosmos 2278 Rocket 4.5 11:29:37 10° SSW 11:33:50 20° SE 11:38:02 10° E
H-2A R/B 4.1 11:37:57 23° SSW 11:37:57 23° SSW 11:39:40 10° SSW
Cosmos 2263 Rocket 4.3 11:34:33 10° WSW 11:36:34 16° WSW 11:36:34 16° WSW
IDEFIX/ARIANE 42P 3.5 11:43:35 43° SE 11:43:35 43° SE 11:47:58 10° S
Cosmos 1844 4.4 11:38:29 10° SSW 11:42:46 49° SW 11:42:46 49° SW
CZ-2D R/B 3.3 11:48:29 34° ESE 11:48:35 34° ESE 11:53:18 10° S
Cosmos 2333 Rocket 3.2 11:51:34 39° ESE 11:51:34 39° ESE 11:55:33 10° SE
Cosmos 2322 Rocket 3.0 11:51:39 46° ESE 11:51:39 46° ESE 11:55:47 10° SE
Cosmos 1727 Rocket 4.4 11:44:11 10° S 11:50:23 56° ESE 11:50:23 56° ESE
